Location: Fredericton
(45.9636°N, 66.6431°W)
Time: 08:14:14
(UTC-03:00)

ISS - Visible Passes

Search period start: 29 May 2017 00:00
Search period end: 08 June 2017 00:00
Orbit: 402 x 408 km, 51.6° (Epoch: 29 May)

Date Brightness Start Highest point End Pass type
(mag) Time Alt. Az. Time Alt. Az. Time Alt. Az.
29 May -1.9 00:28:11 10° WNW 00:31:11 31° N 00:33:48 12° ENE visible
29 May -2.2 02:04:40 10° WNW 02:06:25 28° WNW 02:06:25 28° WNW visible
29 May -2.5 21:58:48 10° W 22:01:59 44° NNW 22:05:10 10° ENE visible
29 May -1.8 23:36:01 10° WNW 23:38:59 29° N 23:41:55 10° ENE visible
30 May -3.1 01:12:40 10° WNW 01:15:37 52° N 01:15:37 52° N visible
30 May -1.8 22:43:48 10° WNW 22:46:45 29° N 22:49:42 10° ENE visible
31 May -2.5 00:20:37 10° NW 00:23:46 40° NNE 00:24:59 28° ENE visible
31 May -1.2 01:57:08 10° WNW 01:57:36 13° WNW 01:57:36 13° WNW visible
31 May -2.0 21:51:30 10° WNW 21:54:32 32° N 21:57:34 10° ENE visible
31 May -2.1 23:28:32 10° WNW 23:31:34 33° N 23:34:25 11° ENE visible
01 Jun -2.5 01:05:01 10° WNW 01:07:03 35° WNW 01:07:03 35° WNW visible
01 Jun -1.9 22:36:23 10° WNW 22:39:20 29° N 22:42:18 10° ENE visible
02 Jun -3.5 00:12:56 10° WNW 00:16:13 64° NNE 00:16:32 59° ENE visible
02 Jun -1.8 21:44:07 10° WNW 21:47:04 29° N 21:50:01 10° ENE visible
02 Jun -2.8 23:20:52 10° WNW 23:24:04 45° NNE 23:26:04 19° E visible
03 Jun -1.7 00:57:26 10° WNW 00:58:42 20° W 00:58:42 20° W visible
03 Jun -2.3 22:28:46 10° NW 22:31:50 35° NNE 22:34:55 10° E visible
04 Jun -3.7 00:05:14 10° WNW 00:08:16 63° WSW 00:08:16 63° WSW visible
04 Jun -3.7 23:13:06 10° WNW 23:16:25 76° NNE 23:17:51 30° ESE visible
05 Jun -1.1 00:50:12 10° W 00:50:30 11° W 00:50:30 11° W visible
05 Jun -3.1 22:20:59 10° WNW 22:24:14 50° NNE 22:27:27 10° E visible
05 Jun -2.6 23:57:39 10° WNW 00:00:07 30° WSW 00:00:07 30° WSW visible
06 Jun -3.6 23:05:21 10° WNW 23:08:36 55° SSW 23:09:45 33° SSE visible
07 Jun -3.8 22:13:09 10° WNW 22:16:28 89° NNE 22:19:25 12° ESE visible
07 Jun -1.6 23:50:33 10° W 23:52:04 15° SW 23:52:04 15° SW visible
